Year,Month,Day,Hour,Minute,Value (Times are PST for temperature in C)
2020,01,13,00,00,-0.10
2020,01,13,00,01,-0.10
2020,01,13,00,02,-0.10
2020,01,13,00,03,-0.10
2020,01,13,00,04,-0.10
2020,01,13,00,05,-0.20
2020,01,13,00,06,-0.20
2020,01,13,00,07,-0.20
2020,01,13,00,08,-0.20
2020,01,13,00,09,-0.20
2020,01,13,00,10,-0.20
2020,01,13,00,11,-0.20
2020,01,13,00,12,-0.20
2020,01,13,00,13,-0.20
2020,01,13,00,14,-0.20
2020,01,13,00,15,-0.20
2020,01,13,00,16,-0.20
2020,01,13,00,17,-0.20
2020,01,13,00,18,-0.20
2020,01,13,00,19,-0.30
2020,01,13,00,20,-0.30
2020,01,13,00,21,-0.30
2020,01,13,00,22,-0.30
2020,01,13,00,23,-0.30
2020,01,13,00,24,-0.30
2020,01,13,00,25,-0.30
2020,01,13,00,26,-0.30
2020,01,13,00,27,-0.30
2020,01,13,00,28,-0.40
2020,01,13,00,29,-0.50
2020,01,13,00,30,-0.50
2020,01,13,00,31,-0.60
2020,01,13,00,32,-0.60
2020,01,13,00,33,-0.70
2020,01,13,00,34,-0.70
2020,01,13,00,35,-0.70
2020,01,13,00,36,-0.80
2020,01,13,00,37,-0.90
2020,01,13,00,38,-0.90
2020,01,13,00,39,-1.00
2020,01,13,00,40,-1.00
2020,01,13,00,41,-1.10
2020,01,13,00,42,-1.10
2020,01,13,00,43,-1.20
2020,01,13,00,44,-1.20
2020,01,13,00,45,-1.20
2020,01,13,00,46,-1.20
2020,01,13,00,47,-1.20
2020,01,13,00,48,-1.30
2020,01,13,00,49,-1.30
2020,01,13,00,50,-1.30
2020,01,13,00,51,-1.30
2020,01,13,00,52,-1.30
2020,01,13,00,53,-1.30
2020,01,13,00,54,-1.30
2020,01,13,00,55,-1.30
2020,01,13,00,56,-1.30
2020,01,13,00,57,-1.30
2020,01,13,00,58,-1.40
2020,01,13,00,59,-1.40
2020,01,13,01,00,-1.40
2020,01,13,01,01,-1.40
2020,01,13,01,02,-1.50
2020,01,13,01,03,-1.50
2020,01,13,01,04,-1.50
2020,01,13,01,05,-1.60
2020,01,13,01,06,-1.60
2020,01,13,01,07,-1.60
2020,01,13,01,08,-1.60
2020,01,13,01,09,-1.60
2020,01,13,01,10,-1.60
2020,01,13,01,11,-1.60
2020,01,13,01,12,-1.60
2020,01,13,01,13,-1.60
2020,01,13,01,14,-1.70
2020,01,13,01,15,-1.70
2020,01,13,01,16,-1.70
2020,01,13,01,17,-1.70
2020,01,13,01,18,-1.70
2020,01,13,01,19,-1.70
2020,01,13,01,20,-1.70
2020,01,13,01,21,-1.70
2020,01,13,01,22,-1.70
2020,01,13,01,23,-1.70
2020,01,13,01,24,-1.70
2020,01,13,01,25,-1.70
2020,01,13,01,26,-1.70
2020,01,13,01,27,-1.70
2020,01,13,01,28,-1.70
2020,01,13,01,29,-1.70
2020,01,13,01,30,-1.70
2020,01,13,01,31,-1.70
2020,01,13,01,32,-1.70
2020,01,13,01,33,-1.70
2020,01,13,01,34,-1.70
2020,01,13,01,35,-1.80
2020,01,13,01,36,-1.80
2020,01,13,01,37,-1.80
2020,01,13,01,38,-1.80
2020,01,13,01,39,-1.80
2020,01,13,01,40,-1.80
2020,01,13,01,41,-1.90
2020,01,13,01,42,-1.90
2020,01,13,01,43,-1.90
2020,01,13,01,44,-1.90
2020,01,13,01,45,-1.90
2020,01,13,01,46,-1.90
2020,01,13,01,47,-1.90
2020,01,13,01,48,-1.90
2020,01,13,01,49,-1.90
2020,01,13,01,50,-1.90
2020,01,13,01,51,-2.00
2020,01,13,01,52,-2.00
2020,01,13,01,53,-2.00
2020,01,13,01,54,-2.00
2020,01,13,01,55,-2.00
2020,01,13,01,56,-2.00
2020,01,13,01,57,-2.00
2020,01,13,01,58,-2.00
2020,01,13,01,59,-2.00
2020,01,13,02,00,-2.00
2020,01,13,02,01,-2.00
2020,01,13,02,02,-2.00
2020,01,13,02,03,-2.00
2020,01,13,02,04,-2.00
2020,01,13,02,05,-1.90
2020,01,13,02,06,-1.90
2020,01,13,02,07,-1.90
2020,01,13,02,08,-1.90
2020,01,13,02,09,-1.90
2020,01,13,02,10,-1.90
2020,01,13,02,11,-1.90
2020,01,13,02,12,-1.90
2020,01,13,02,13,-1.90
2020,01,13,02,14,-1.90
2020,01,13,02,15,-1.90
2020,01,13,02,16,-1.90
2020,01,13,02,17,-1.90
2020,01,13,02,18,-1.90
2020,01,13,02,19,-1.90
2020,01,13,02,20,-1.90
2020,01,13,02,21,-1.90
2020,01,13,02,22,-1.90
2020,01,13,02,23,-1.90
2020,01,13,02,24,-1.90
2020,01,13,02,25,-1.90
2020,01,13,02,26,-1.90
2020,01,13,02,27,-1.90
2020,01,13,02,28,-1.90
2020,01,13,02,29,-1.90
2020,01,13,02,30,-1.90
2020,01,13,02,31,-1.90
2020,01,13,02,32,-1.90
2020,01,13,02,33,-1.90
2020,01,13,02,34,-1.90
2020,01,13,02,35,-1.90
2020,01,13,02,36,-1.90
2020,01,13,02,37,-1.90
2020,01,13,02,38,-1.90
2020,01,13,02,39,-1.90
2020,01,13,02,40,-1.90
2020,01,13,02,41,-1.90
2020,01,13,02,42,-1.90
2020,01,13,02,43,-1.90
2020,01,13,02,44,-1.90
2020,01,13,02,45,-1.90
2020,01,13,02,46,-1.90
2020,01,13,02,47,-1.90
2020,01,13,02,48,-1.90
2020,01,13,02,49,-1.90
2020,01,13,02,50,-1.90
2020,01,13,02,51,-1.80
2020,01,13,02,52,-1.80
2020,01,13,02,53,-1.80
2020,01,13,02,54,-1.80
2020,01,13,02,55,-1.80
2020,01,13,02,56,-1.80
2020,01,13,02,57,-1.80
2020,01,13,02,58,-1.80
2020,01,13,02,59,-1.80
2020,01,13,03,00,-1.80
2020,01,13,03,01,-1.80
2020,01,13,03,02,-1.80
2020,01,13,03,06,-1.80
2020,01,13,03,07,-1.80
2020,01,13,03,08,-1.80
2020,01,13,03,09,-1.80
2020,01,13,03,10,-1.80
2020,01,13,03,11,-1.80
2020,01,13,03,12,-1.80
2020,01,13,03,13,-1.80
2020,01,13,03,14,-1.80
2020,01,13,03,15,-1.80
2020,01,13,03,16,-1.80
2020,01,13,03,17,-1.80
2020,01,13,03,18,-1.80
2020,01,13,03,19,-1.80
2020,01,13,03,20,-1.80
2020,01,13,03,21,-1.80
2020,01,13,03,22,-1.80
2020,01,13,03,23,-1.80
2020,01,13,03,24,-1.80
2020,01,13,03,25,-1.80
2020,01,13,03,26,-1.80
2020,01,13,03,27,-1.80
2020,01,13,03,28,-1.80
2020,01,13,03,29,-1.80
2020,01,13,03,30,-1.90
2020,01,13,03,31,-1.90
2020,01,13,03,32,-1.90
2020,01,13,03,33,-1.90
2020,01,13,03,34,-1.90
2020,01,13,03,35,-1.90
2020,01,13,03,36,-1.90
2020,01,13,03,37,-1.90
2020,01,13,03,38,-1.90
2020,01,13,03,39,-1.90
2020,01,13,03,40,-2.00
2020,01,13,03,41,-2.00
2020,01,13,03,42,-1.90
2020,01,13,03,43,-2.00
2020,01,13,03,44,-1.90
2020,01,13,03,45,-1.90
2020,01,13,03,46,-1.90
2020,01,13,03,47,-2.00
2020,01,13,03,48,-2.00
2020,01,13,03,49,-2.00
2020,01,13,03,50,-2.00
2020,01,13,03,51,-2.00
2020,01,13,03,52,-2.00
2020,01,13,03,53,-2.00
2020,01,13,03,54,-2.00
2020,01,13,03,55,-2.00
2020,01,13,03,56,-2.00
2020,01,13,03,57,-2.00
2020,01,13,03,58,-2.00
2020,01,13,03,59,-2.00
2020,01,13,04,00,-2.00
2020,01,13,04,01,-2.00
2020,01,13,04,02,-2.00
2020,01,13,04,03,-2.00
2020,01,13,04,04,-2.00
2020,01,13,04,05,-2.00
2020,01,13,04,06,-2.00
2020,01,13,04,07,-2.00
2020,01,13,04,08,-1.90
2020,01,13,04,09,-1.90
2020,01,13,04,10,-1.90
2020,01,13,04,11,-1.90
2020,01,13,04,12,-1.90
2020,01,13,04,13,-1.90
2020,01,13,04,14,-1.90
2020,01,13,04,15,-1.90
2020,01,13,04,16,-1.90
2020,01,13,04,17,-1.90
2020,01,13,04,18,-1.90
2020,01,13,04,19,-1.90
2020,01,13,04,20,-1.90
2020,01,13,04,21,-1.90
2020,01,13,04,22,-1.90
2020,01,13,04,23,-1.90
2020,01,13,04,24,-1.90
2020,01,13,04,25,-1.90
2020,01,13,04,26,-1.90
2020,01,13,04,27,-1.90
2020,01,13,04,28,-1.90
2020,01,13,04,29,-1.80
2020,01,13,04,30,-1.80
2020,01,13,04,31,-1.90
2020,01,13,04,32,-1.90
2020,01,13,04,33,-1.90
2020,01,13,04,34,-1.90
2020,01,13,04,35,-1.90
2020,01,13,04,36,-1.90
2020,01,13,04,37,-1.90
2020,01,13,04,38,-1.90
2020,01,13,04,39,-1.90
2020,01,13,04,40,-1.90
2020,01,13,04,41,-1.90
2020,01,13,04,42,-1.90
2020,01,13,04,43,-1.90
2020,01,13,04,44,-1.90
2020,01,13,04,45,-1.90
2020,01,13,04,46,-1.90
2020,01,13,04,47,-1.90
2020,01,13,04,48,-1.90
2020,01,13,04,49,-1.90
2020,01,13,04,50,-1.90
2020,01,13,04,51,-1.90
2020,01,13,04,52,-1.90
2020,01,13,04,53,-1.90
2020,01,13,04,54,-1.90
2020,01,13,04,55,-1.90
2020,01,13,04,56,-1.90
2020,01,13,04,57,-1.90
2020,01,13,04,58,-1.90
2020,01,13,04,59,-1.90
2020,01,13,05,00,-1.90
2020,01,13,05,01,-1.90
2020,01,13,05,02,-1.90
2020,01,13,05,03,-1.90
2020,01,13,05,04,-1.90
2020,01,13,05,05,-1.90
2020,01,13,05,06,-1.90
2020,01,13,05,07,-2.00
2020,01,13,05,08,-2.00
2020,01,13,05,09,-2.00
2020,01,13,05,10,-2.00
2020,01,13,05,11,-2.00
2020,01,13,05,12,-2.00
2020,01,13,05,13,-2.00
2020,01,13,05,14,-2.00
2020,01,13,05,15,-2.00
2020,01,13,05,16,-2.10
2020,01,13,05,17,-2.10
2020,01,13,05,18,-2.10
2020,01,13,05,19,-2.10
2020,01,13,05,20,-2.10
2020,01,13,05,21,-2.10
2020,01,13,05,22,-2.10
2020,01,13,05,23,-2.10
2020,01,13,05,24,-2.10
2020,01,13,05,25,-2.00
2020,01,13,05,26,-2.10
2020,01,13,05,27,-2.10
2020,01,13,05,28,-2.00
2020,01,13,05,29,-2.10
2020,01,13,05,30,-2.10
2020,01,13,05,31,-2.10
2020,01,13,05,32,-2.10
2020,01,13,05,33,-2.10
2020,01,13,05,34,-2.10
2020,01,13,05,35,-2.10
2020,01,13,05,36,-2.10
2020,01,13,05,37,-2.10
2020,01,13,05,38,-2.10
2020,01,13,05,39,-2.10
2020,01,13,05,40,-2.10
2020,01,13,05,41,-2.10
2020,01,13,05,42,-2.10
2020,01,13,05,43,-2.10
2020,01,13,05,44,-2.10
2020,01,13,05,45,-2.10
2020,01,13,05,46,-2.10
2020,01,13,05,47,-2.10
2020,01,13,05,48,-2.20
2020,01,13,05,49,-2.20
2020,01,13,05,50,-2.20
2020,01,13,05,51,-2.20
2020,01,13,05,52,-2.20
2020,01,13,05,53,-2.20
2020,01,13,05,54,-2.20
2020,01,13,05,55,-2.20
2020,01,13,05,56,-2.20
2020,01,13,05,57,-2.20
2020,01,13,05,58,-2.20
2020,01,13,05,59,-2.20
2020,01,13,06,00,-2.20
2020,01,13,06,01,-2.20
2020,01,13,06,02,-2.20
2020,01,13,06,03,-2.20
2020,01,13,06,04,-2.20
2020,01,13,06,05,-2.20
2020,01,13,06,06,-2.20
2020,01,13,06,07,-2.20
2020,01,13,06,08,-2.20
2020,01,13,06,09,-2.20
2020,01,13,06,10,-2.20
2020,01,13,06,11,-2.20
2020,01,13,06,12,-2.20
2020,01,13,06,13,-2.20
2020,01,13,06,14,-2.20
2020,01,13,06,15,-2.20
2020,01,13,06,16,-2.20
2020,01,13,06,17,-2.20
2020,01,13,06,18,-2.20
2020,01,13,06,19,-2.20
2020,01,13,06,20,-2.20
2020,01,13,06,21,-2.20
2020,01,13,06,22,-2.20
2020,01,13,06,23,-2.20
2020,01,13,06,24,-2.20
2020,01,13,06,25,-2.20
2020,01,13,06,26,-2.20
2020,01,13,06,27,-2.30
2020,01,13,06,28,-2.30
2020,01,13,06,29,-2.30
2020,01,13,06,30,-2.30
2020,01,13,06,31,-2.30
2020,01,13,06,32,-2.30
2020,01,13,06,33,-2.30
2020,01,13,06,34,-2.30
2020,01,13,06,35,-2.30
2020,01,13,06,36,-2.30
2020,01,13,06,37,-2.30
2020,01,13,06,38,-2.30
2020,01,13,06,39,-2.30
2020,01,13,06,40,-2.30
2020,01,13,06,41,-2.30
2020,01,13,06,42,-2.30
2020,01,13,06,43,-2.30
2020,01,13,06,44,-2.30
2020,01,13,06,45,-2.30
2020,01,13,06,46,-2.20
2020,01,13,06,47,-2.20
2020,01,13,06,48,-2.20
2020,01,13,06,49,-2.20
2020,01,13,06,50,-2.20
2020,01,13,06,51,-2.20
2020,01,13,06,52,-2.20
2020,01,13,06,53,-2.30
2020,01,13,06,54,-2.30
2020,01,13,06,55,-2.30
2020,01,13,06,56,-2.30
2020,01,13,06,57,-2.30
2020,01,13,06,58,-2.30
2020,01,13,06,59,-2.30
2020,01,13,07,00,-2.30
2020,01,13,07,01,-2.30
2020,01,13,07,02,-2.20
2020,01,13,07,03,-2.20
2020,01,13,07,04,-2.20
2020,01,13,07,05,-2.20
2020,01,13,07,06,-2.20
2020,01,13,07,07,-2.20
2020,01,13,07,08,-2.20
2020,01,13,07,09,-2.20
2020,01,13,07,10,-2.20
2020,01,13,07,11,-2.20
2020,01,13,07,12,-2.20
2020,01,13,07,13,-2.20
2020,01,13,07,14,-2.20
2020,01,13,07,15,-2.20
2020,01,13,07,16,-2.20
2020,01,13,07,17,-2.20
2020,01,13,07,18,-2.30
2020,01,13,07,19,-2.30
2020,01,13,07,20,-2.30
2020,01,13,07,21,-2.30
2020,01,13,07,22,-2.30
2020,01,13,07,23,-2.30
2020,01,13,07,24,-2.30
2020,01,13,07,25,-2.30
2020,01,13,07,26,-2.30
2020,01,13,07,27,-2.30
2020,01,13,07,28,-2.30
2020,01,13,07,29,-2.30
2020,01,13,07,30,-2.30
2020,01,13,07,31,-2.30
2020,01,13,07,32,-2.30
2020,01,13,07,33,-2.30
2020,01,13,07,34,-2.30
2020,01,13,07,35,-2.40
2020,01,13,07,36,-2.30
2020,01,13,07,37,-2.40
2020,01,13,07,38,-2.40
2020,01,13,07,39,-2.40
2020,01,13,07,40,-2.40
2020,01,13,07,41,-2.40
2020,01,13,07,42,-2.40
2020,01,13,07,43,-2.40
2020,01,13,07,44,-2.40
2020,01,13,07,45,-2.40
2020,01,13,07,46,-2.40
2020,01,13,07,47,-2.40
2020,01,13,07,48,-2.40
2020,01,13,07,49,-2.40
2020,01,13,07,50,-2.40
2020,01,13,07,51,-2.40
2020,01,13,07,52,-2.40
2020,01,13,07,53,-2.40
2020,01,13,07,54,-2.40
2020,01,13,07,55,-2.40
2020,01,13,07,56,-2.40
2020,01,13,07,57,-2.40
2020,01,13,07,58,-2.40
2020,01,13,07,59,-2.40
2020,01,13,08,00,-2.40
2020,01,13,08,01,-2.40
2020,01,13,08,02,-2.40
2020,01,13,08,03,-2.40
2020,01,13,08,04,-2.40
2020,01,13,08,05,-2.40
2020,01,13,08,06,-2.40
2020,01,13,08,07,-2.40
2020,01,13,08,08,-2.40
2020,01,13,08,09,-2.40
2020,01,13,08,10,-2.40
2020,01,13,08,11,-2.40
2020,01,13,08,12,-2.40
2020,01,13,08,13,-2.40
2020,01,13,08,14,-2.40
2020,01,13,08,15,-2.40
2020,01,13,08,16,-2.40
2020,01,13,08,17,-2.40
2020,01,13,08,18,-2.40
2020,01,13,08,19,-2.40
2020,01,13,08,20,-2.40
2020,01,13,08,21,-2.40
2020,01,13,08,22,-2.40
2020,01,13,08,23,-2.40
2020,01,13,08,24,-2.40
2020,01,13,08,25,-2.50
2020,01,13,08,26,-2.50
2020,01,13,08,27,-2.50
2020,01,13,08,28,-2.50
2020,01,13,08,29,-2.50
2020,01,13,08,30,-2.50
2020,01,13,08,31,-2.50
2020,01,13,08,32,-2.50
2020,01,13,08,33,-2.50
2020,01,13,08,34,-2.50
2020,01,13,08,35,-2.60
2020,01,13,08,36,-2.50
2020,01,13,08,37,-2.60
2020,01,13,08,38,-2.60
2020,01,13,08,39,-2.60
2020,01,13,08,40,-2.60
2020,01,13,08,41,-2.60
2020,01,13,08,42,-2.60
2020,01,13,08,43,-2.60
2020,01,13,08,44,-2.60
2020,01,13,08,45,-2.60
2020,01,13,08,46,-2.60
2020,01,13,08,47,-2.60
2020,01,13,08,48,-2.60
2020,01,13,08,49,-2.60
2020,01,13,08,50,-2.60
2020,01,13,08,51,-2.60
2020,01,13,08,52,-2.60
2020,01,13,08,53,-2.60
2020,01,13,08,54,-2.70
2020,01,13,08,55,-2.70
2020,01,13,08,56,-2.70
2020,01,13,08,57,-2.70
2020,01,13,08,58,-2.70
2020,01,13,08,59,-2.70
2020,01,13,09,00,-2.70
2020,01,13,09,01,-2.70
2020,01,13,09,02,-2.70
2020,01,13,09,03,-2.70
2020,01,13,09,04,-2.70
2020,01,13,09,05,-2.70
2020,01,13,09,06,-2.70
2020,01,13,09,07,-2.70
2020,01,13,09,08,-2.70
2020,01,13,09,09,-2.60
2020,01,13,09,10,-2.60
2020,01,13,09,11,-2.60
2020,01,13,09,12,-2.60
2020,01,13,09,13,-2.50
2020,01,13,09,14,-2.50
2020,01,13,09,15,-2.50
2020,01,13,09,16,-2.50
2020,01,13,09,17,-2.50
2020,01,13,09,18,-2.50
2020,01,13,09,19,-2.50
2020,01,13,09,20,-2.60
2020,01,13,09,21,-2.60
2020,01,13,09,22,-2.60
2020,01,13,09,23,-2.60
2020,01,13,09,24,-2.60
2020,01,13,09,25,-2.60
2020,01,13,09,26,-2.60
2020,01,13,09,27,-2.60
2020,01,13,09,28,-2.60
2020,01,13,09,29,-2.60
2020,01,13,09,30,-2.60
2020,01,13,09,31,-2.60
2020,01,13,09,32,-2.60
2020,01,13,09,33,-2.60
2020,01,13,09,34,-2.60
2020,01,13,09,35,-2.60
2020,01,13,09,36,-2.60
2020,01,13,09,37,-2.60
2020,01,13,09,38,-2.60
2020,01,13,09,39,-2.60
2020,01,13,09,40,-2.60
2020,01,13,09,41,-2.60
2020,01,13,09,42,-2.50
2020,01,13,09,43,-2.60
2020,01,13,09,44,-2.60
2020,01,13,09,45,-2.60
2020,01,13,09,46,-2.70
2020,01,13,09,47,-2.70
2020,01,13,09,48,-2.70
2020,01,13,09,49,-2.70
2020,01,13,09,50,-2.70
2020,01,13,09,51,-2.70
2020,01,13,09,52,-2.70
2020,01,13,09,53,-2.70
2020,01,13,09,54,-2.70
2020,01,13,09,55,-2.70
2020,01,13,09,56,-2.70
2020,01,13,09,57,-2.70
2020,01,13,09,58,-2.70
2020,01,13,09,59,-2.70
2020,01,13,10,00,-2.70
2020,01,13,10,01,-2.70
2020,01,13,10,02,-2.70
2020,01,13,10,03,-2.80
2020,01,13,10,04,-2.80
2020,01,13,10,05,-2.80
2020,01,13,10,06,-2.80
2020,01,13,10,07,-2.80
2020,01,13,10,08,-2.80
2020,01,13,10,09,-2.80
2020,01,13,10,10,-2.80
2020,01,13,10,11,-2.80
2020,01,13,10,12,-2.80
2020,01,13,10,13,-2.80
2020,01,13,10,14,-2.80
2020,01,13,10,15,-2.80
2020,01,13,10,16,-2.80
2020,01,13,10,17,-2.80
2020,01,13,10,18,-2.80
2020,01,13,10,19,-2.80
2020,01,13,10,20,-2.80
2020,01,13,10,21,-2.80
2020,01,13,10,22,-2.80
2020,01,13,10,23,-2.80
2020,01,13,10,24,-2.80
2020,01,13,10,25,-2.80
2020,01,13,10,26,-2.80
2020,01,13,10,27,-2.80
2020,01,13,10,28,-2.80
2020,01,13,10,29,-2.80
2020,01,13,10,30,-2.80
2020,01,13,10,31,-2.80
2020,01,13,10,32,-2.80
2020,01,13,10,33,-2.80
2020,01,13,10,34,-2.80
2020,01,13,10,35,-2.80
2020,01,13,10,36,-2.80
2020,01,13,10,37,-2.80
2020,01,13,10,38,-2.80
2020,01,13,10,39,-2.70
2020,01,13,10,40,-2.70
2020,01,13,10,41,-2.70
2020,01,13,10,42,-2.70
2020,01,13,10,43,-2.70
2020,01,13,10,44,-2.70
2020,01,13,10,45,-2.70
2020,01,13,10,46,-2.70
2020,01,13,10,47,-2.70
2020,01,13,10,48,-2.60
2020,01,13,10,49,-2.60
2020,01,13,10,50,-2.60
2020,01,13,10,51,-2.60
2020,01,13,10,52,-2.70
2020,01,13,10,53,-2.70
2020,01,13,10,54,-2.70
2020,01,13,10,55,-2.70
2020,01,13,10,56,-2.70
2020,01,13,10,57,-2.70
2020,01,13,10,58,-2.70
2020,01,13,10,59,-2.70
2020,01,13,11,00,-2.70
2020,01,13,11,01,-2.70
2020,01,13,11,02,-2.70
2020,01,13,11,03,-2.70
2020,01,13,11,04,-2.70
2020,01,13,11,05,-2.70
2020,01,13,11,06,-2.70
2020,01,13,11,07,-2.70
2020,01,13,11,08,-2.70
2020,01,13,11,09,-2.70
2020,01,13,11,10,-2.70
2020,01,13,11,11,-2.80
2020,01,13,11,12,-2.70
2020,01,13,11,13,-2.80
2020,01,13,11,14,-2.80
2020,01,13,11,15,-2.80
2020,01,13,11,16,-2.90
2020,01,13,11,17,-2.90
2020,01,13,11,18,-2.90
2020,01,13,11,19,-3.00
2020,01,13,11,20,-3.00
2020,01,13,11,21,-3.00
2020,01,13,11,22,-3.00
2020,01,13,11,23,-3.00
2020,01,13,11,24,-3.00
2020,01,13,11,25,-3.00
2020,01,13,11,26,-3.00
2020,01,13,11,27,-3.00
2020,01,13,11,28,-3.00
2020,01,13,11,29,-3.00
2020,01,13,11,30,-3.00
2020,01,13,11,31,-3.00
2020,01,13,11,32,-3.00
2020,01,13,11,33,-3.00
2020,01,13,11,34,-3.00
2020,01,13,11,35,-3.00
2020,01,13,11,36,-3.00
2020,01,13,11,37,-3.00
2020,01,13,11,38,-3.00
2020,01,13,11,39,-3.00
2020,01,13,11,40,-3.00
2020,01,13,11,41,-3.10
2020,01,13,11,42,-3.10
2020,01,13,11,43,-3.10
2020,01,13,11,44,-3.10
2020,01,13,11,45,-3.10
2020,01,13,11,46,-3.10
2020,01,13,11,47,-3.10
2020,01,13,11,48,-3.10
2020,01,13,11,49,-3.10
2020,01,13,11,50,-3.10
2020,01,13,11,51,-3.10
2020,01,13,11,52,-3.10
2020,01,13,11,53,-3.20
2020,01,13,11,54,-3.10
2020,01,13,11,55,-3.10
2020,01,13,11,56,-3.10
2020,01,13,11,57,-3.10
2020,01,13,11,58,-3.10
2020,01,13,11,59,-3.10
2020,01,13,12,00,-3.10
2020,01,13,12,01,-3.10
2020,01,13,12,02,-3.10
2020,01,13,12,03,-3.00
2020,01,13,12,04,-3.00
2020,01,13,12,05,-3.10
2020,01,13,12,06,-3.10
2020,01,13,12,07,-3.10
2020,01,13,12,08,-3.10
2020,01,13,12,09,-3.10
2020,01,13,12,10,-3.00
2020,01,13,12,11,-3.00
2020,01,13,12,12,-3.00
2020,01,13,12,13,-2.90
2020,01,13,12,14,-2.90
2020,01,13,12,15,-2.90
2020,01,13,12,16,-3.00
2020,01,13,12,17,-3.00
2020,01,13,12,18,-3.10
2020,01,13,12,19,-3.10
2020,01,13,12,20,-3.10
2020,01,13,12,21,-3.10
2020,01,13,12,22,-3.10
2020,01,13,12,23,-3.10
2020,01,13,12,24,-3.00
2020,01,13,12,25,-3.10
2020,01,13,12,26,-3.10
2020,01,13,12,27,-3.10
2020,01,13,12,28,-3.10
2020,01,13,12,29,-3.10
2020,01,13,12,30,-3.20
2020,01,13,12,31,-3.20
2020,01,13,12,32,-3.20
2020,01,13,12,33,-3.20
2020,01,13,12,34,-3.30
2020,01,13,12,35,-3.20
2020,01,13,12,36,-3.20
2020,01,13,12,37,-3.20
2020,01,13,12,38,-3.20
2020,01,13,12,39,-3.20
2020,01,13,12,40,-3.20
2020,01,13,12,41,-3.20
2020,01,13,12,42,-3.20
2020,01,13,12,43,-3.20
2020,01,13,12,44,-3.20
2020,01,13,12,45,-3.20
2020,01,13,12,46,-3.20
2020,01,13,12,47,-3.20
2020,01,13,12,48,-3.20
2020,01,13,12,49,-3.20
2020,01,13,12,50,-3.20
2020,01,13,12,51,-3.20
2020,01,13,12,52,-3.30
2020,01,13,12,53,-3.30
2020,01,13,12,54,-3.30
2020,01,13,12,55,-3.30
2020,01,13,12,56,-3.30
2020,01,13,12,57,-3.30
2020,01,13,12,58,-3.30
2020,01,13,12,59,-3.30
2020,01,13,13,00,-3.30
2020,01,13,13,01,-3.40
2020,01,13,13,02,-3.40
2020,01,13,13,03,-3.40
2020,01,13,13,04,-3.40
2020,01,13,13,05,-3.30
2020,01,13,13,06,-3.30
2020,01,13,13,07,-3.30
2020,01,13,13,08,-3.30
2020,01,13,13,09,-3.30
2020,01,13,13,10,-3.30
2020,01,13,13,11,-3.30
2020,01,13,13,12,-3.30
2020,01,13,13,13,-3.30
2020,01,13,13,14,-3.30
2020,01,13,13,15,-3.30
2020,01,13,13,16,-3.30
2020,01,13,13,17,-3.30
2020,01,13,13,18,-3.30
2020,01,13,13,19,-3.30
2020,01,13,13,20,-3.30
2020,01,13,13,21,-3.30
2020,01,13,13,22,-3.30
2020,01,13,13,23,-3.30
2020,01,13,13,24,-3.30
2020,01,13,13,25,-3.40
2020,01,13,13,26,-3.40
2020,01,13,13,27,-3.40
2020,01,13,13,28,-3.40
2020,01,13,13,29,-3.40
2020,01,13,13,30,-3.40
2020,01,13,13,31,-3.40
2020,01,13,13,32,-3.40
2020,01,13,13,33,-3.40
2020,01,13,13,34,-3.40
2020,01,13,13,35,-3.40
2020,01,13,13,36,-3.40
2020,01,13,13,37,-3.40
2020,01,13,13,38,-3.40
2020,01,13,13,39,-3.40
2020,01,13,13,40,-3.40
2020,01,13,13,41,-3.40
2020,01,13,13,42,-3.40
2020,01,13,13,43,-3.40
2020,01,13,13,44,-3.50
2020,01,13,13,45,-3.50
2020,01,13,13,46,-3.50
2020,01,13,13,47,-3.50
2020,01,13,13,48,-3.50
2020,01,13,13,49,-3.50
2020,01,13,13,50,-3.50
2020,01,13,13,51,-3.50
2020,01,13,13,52,-3.50
2020,01,13,13,53,-3.50
2020,01,13,13,54,-3.60
2020,01,13,13,55,-3.60
2020,01,13,13,56,-3.60
2020,01,13,13,57,-3.60
2020,01,13,13,58,-3.70
2020,01,13,13,59,-3.70
2020,01,13,14,00,-3.70
2020,01,13,14,01,-3.70
2020,01,13,14,02,-3.70
2020,01,13,14,03,-3.70
2020,01,13,14,04,-3.70
2020,01,13,14,05,-3.70
2020,01,13,14,06,-3.60
2020,01,13,14,07,-3.60
2020,01,13,14,08,-3.60
2020,01,13,14,09,-3.60
2020,01,13,14,10,-3.70
2020,01,13,14,11,-3.70
2020,01,13,14,12,-3.70
2020,01,13,14,13,-3.70
2020,01,13,14,14,-3.70
2020,01,13,14,15,-3.70
2020,01,13,14,16,-3.70
2020,01,13,14,17,-3.70
2020,01,13,14,18,-3.70
2020,01,13,14,19,-3.70
2020,01,13,14,20,-3.70
2020,01,13,14,21,-3.70
2020,01,13,14,22,-3.70
2020,01,13,14,23,-3.70
2020,01,13,14,24,-3.70
2020,01,13,14,25,-3.70
2020,01,13,14,26,-3.70
2020,01,13,14,27,-3.70
2020,01,13,14,28,-3.70
2020,01,13,14,29,-3.70
2020,01,13,14,30,-3.70
2020,01,13,14,31,-3.70
2020,01,13,14,32,-3.70
2020,01,13,14,33,-3.70
2020,01,13,14,34,-3.70
2020,01,13,14,35,-3.70
2020,01,13,14,36,-3.60
2020,01,13,14,37,-3.60
2020,01,13,14,38,-3.60
2020,01,13,14,39,-3.60
2020,01,13,14,40,-3.60
2020,01,13,14,41,-3.60
2020,01,13,14,42,-3.60
2020,01,13,14,43,-3.60
2020,01,13,14,44,-3.60
2020,01,13,14,45,-3.60
2020,01,13,14,46,-3.70
2020,01,13,14,47,-3.70
2020,01,13,14,48,-3.70
2020,01,13,14,49,-3.70
2020,01,13,14,50,-3.70
2020,01,13,14,51,-3.70
2020,01,13,14,52,-3.70
2020,01,13,14,53,-3.70
2020,01,13,14,54,-3.70
2020,01,13,14,55,-3.70
2020,01,13,14,56,-3.70
2020,01,13,14,57,-3.70
2020,01,13,14,58,-3.70
2020,01,13,14,59,-3.70
2020,01,13,15,00,-3.70
2020,01,13,15,01,-3.70
2020,01,13,15,02,-3.70
2020,01,13,15,03,-3.70
2020,01,13,15,04,-3.70
2020,01,13,15,05,-3.70
2020,01,13,15,06,-3.70
2020,01,13,15,07,-3.70
2020,01,13,15,08,-3.70
2020,01,13,15,09,-3.70
2020,01,13,15,10,-3.70
2020,01,13,15,11,-3.70
2020,01,13,15,12,-3.70
2020,01,13,15,13,-3.70
2020,01,13,15,14,-3.70
2020,01,13,15,15,-3.70
2020,01,13,15,16,-3.70
2020,01,13,15,17,-3.70
2020,01,13,15,18,-3.70
2020,01,13,15,19,-3.70
2020,01,13,15,20,-3.70
2020,01,13,15,21,-3.70
2020,01,13,15,22,-3.70
2020,01,13,15,23,-3.70
2020,01,13,15,24,-3.70
2020,01,13,15,25,-3.70
2020,01,13,15,26,-3.70
2020,01,13,15,27,-3.70
2020,01,13,15,28,-3.70
2020,01,13,15,29,-3.70
2020,01,13,15,30,-3.70
2020,01,13,15,31,-3.70
2020,01,13,15,32,-3.70
2020,01,13,15,33,-3.70
2020,01,13,15,34,-3.70
2020,01,13,15,35,-3.70
2020,01,13,15,36,-3.70
2020,01,13,15,37,-3.70
2020,01,13,15,38,-3.80
2020,01,13,15,39,-3.80
2020,01,13,15,40,-3.80
2020,01,13,15,41,-3.90
2020,01,13,15,42,-3.90
2020,01,13,15,43,-3.90
2020,01,13,15,44,-3.90
2020,01,13,15,45,-3.90
2020,01,13,15,46,-3.90
2020,01,13,15,47,-3.90
2020,01,13,15,48,-3.90
2020,01,13,15,49,-3.90
2020,01,13,15,50,-3.90
2020,01,13,15,51,-3.90
2020,01,13,15,52,-3.90
2020,01,13,15,53,-3.90
2020,01,13,15,54,-3.90
2020,01,13,15,55,-3.90
2020,01,13,15,56,-3.90
2020,01,13,15,57,-3.90
2020,01,13,15,58,-3.90
2020,01,13,15,59,-3.90
2020,01,13,16,00,-3.90
2020,01,13,16,01,-4.00
2020,01,13,16,02,-4.00
2020,01,13,16,03,-4.00
2020,01,13,16,04,-4.00
2020,01,13,16,05,-4.00
2020,01,13,16,06,-4.00
2020,01,13,16,07,-4.00
2020,01,13,16,08,-4.00
2020,01,13,16,09,-4.00
2020,01,13,16,10,-4.00
2020,01,13,16,11,-3.90
2020,01,13,16,12,-3.90
2020,01,13,16,13,-3.90
2020,01,13,16,14,-3.90
2020,01,13,16,15,-3.90
2020,01,13,16,16,-3.90
2020,01,13,16,17,-3.90
2020,01,13,16,18,-3.90
2020,01,13,16,19,-3.90
2020,01,13,16,20,-3.90
2020,01,13,16,21,-3.90
2020,01,13,16,22,-3.90
2020,01,13,16,23,-3.90
2020,01,13,16,24,-3.90
2020,01,13,16,25,-3.90
2020,01,13,16,26,-3.90
2020,01,13,16,27,-3.90
2020,01,13,16,28,-3.90
2020,01,13,16,29,-3.90
2020,01,13,16,30,-3.90
2020,01,13,16,31,-3.90
2020,01,13,16,32,-3.90
2020,01,13,16,33,-3.90
2020,01,13,16,34,-3.90
2020,01,13,16,35,-3.90
2020,01,13,16,36,-3.90
2020,01,13,16,37,-3.90
2020,01,13,16,38,-3.90
2020,01,13,16,39,-3.90
2020,01,13,16,40,-3.90
2020,01,13,16,41,-3.90
2020,01,13,16,42,-3.90
2020,01,13,16,43,-3.90
2020,01,13,16,44,-3.90
2020,01,13,16,45,-3.90
2020,01,13,16,46,-3.90
2020,01,13,16,47,-3.90
2020,01,13,16,48,-3.90
2020,01,13,16,49,-3.90
2020,01,13,16,50,-3.90
2020,01,13,16,51,-3.90
2020,01,13,16,52,-3.90
2020,01,13,16,53,-3.80
2020,01,13,16,54,-3.80
2020,01,13,16,55,-3.80
2020,01,13,16,56,-3.90
2020,01,13,16,57,-3.90
2020,01,13,16,58,-3.90
2020,01,13,16,59,-3.90
2020,01,13,17,00,-3.90
2020,01,13,17,01,-3.90
2020,01,13,17,02,-3.90
2020,01,13,17,03,-3.90
2020,01,13,17,04,-3.90
2020,01,13,17,05,-3.90
2020,01,13,17,06,-3.90
2020,01,13,17,07,-3.90
2020,01,13,17,08,-3.90
2020,01,13,17,09,-3.90
2020,01,13,17,10,-3.90
2020,01,13,17,11,-3.90
2020,01,13,17,12,-3.90
2020,01,13,17,13,-3.90
2020,01,13,17,14,-4.00
2020,01,13,17,15,-4.00
2020,01,13,17,16,-4.00
2020,01,13,17,17,-4.00
2020,01,13,17,18,-4.00
2020,01,13,17,19,-4.00
2020,01,13,17,20,-4.00
2020,01,13,17,21,-4.10
2020,01,13,17,22,-4.10